Theta_e
327 328 328 328 328 328 327 327 327 327 326 326 326 325 325 326 325 325 325 324 324 324 324 324 324 324 323 323 323 322 322 322 322 322 321 321 321 320 320 320 320 320
326 327 327 328 328 328 327 328 327 327 327 326 326 326 325 325 325 325 325 324 324 324 324 324 324 323 323 323 322 322 322 322 322 322 321 321 321 321 321 320 320 320
325 326 327 327 327 328 327 327 327 327 327 326 326 326 326 326 325 325 325 324 324 324 324 324 324 324 323 323 323 322 322 322 322 322 321 321 321 321 321 320 320 320
324 325 326 327 327 327 327 327 327 327 327 327 327 326 326 326 326 325 325 325 324 324 324 324 324 324 323 323 323 322 322 322 322 322 321 321 321 321 321 321 320 320
322 324 325 326 326 327 327 327 327 327 327 327 327 327 326 326 326 325 325 325 324 324 324 324 324 324 323 323 322 322 322 322 322 322 321 321 321 321 321 321 320 320
320 322 323 325 325 326 327 327 327 327 327 327 327 327 326 326 326 325 325 325 325 325 324 324 324 323 323 323 323 322 322 322 322 322 321 321 321 321 321 321 320 320
319 320 322 323 324 325 326 326 327 327 327 327 327 327 326 326 326 325 325 325 325 325 324 324 324 324 323 323 322 322 322 322 322 322 321 321 321 321 321 321 320 320
318 319 320 321 323 324 325 326 326 326 327 326 326 327 326 326 326 326 325 325 325 325 324 324 324 324 324 323 323 322 322 322 322 322 322 321 321 321 321 321 321 320
317 318 319 320 321 322 323 324 325 325 326 326 326 326 326 326 326 326 326 325 325 325 324 324 324 324 324 323 323 323 322 322 322 322 322 321 321 321 321 321 321 321
317 317 318 319 319 321 322 323 324 324 325 325 326 326 326 326 326 326 326 325 325 324 324 324 324 324 324 323 323 323 323 323 323 322 322 322 321 321 321 321 321 321
317 317 318 318 319 319 320 321 322 323 323 324 325 325 325 325 326 325 325 325 325 324 324 324 324 324 323 323 323 323 323 323 323 322 322 322 322 322 321 321 321 321
316 317 317 318 318 319 319 320 321 321 322 323 323 324 325 325 325 325 325 325 325 325 324 324 324 324 324 323 323 323 323 323 322 322 322 322 322 321 322 321 321 321
314 315 316 316 317 318 318 319 319 320 321 322 323 323 324 324 324 325 325 325 325 325 324 324 324 324 323 323 323 323 322 322 322 322 322 322 322 321 322 321 321 321
311 312 312 313 314 315 316 316 317 317 318 319 321 322 323 323 324 324 324 325 325 324 324 324 324 324 323 323 323 323 322 322 322 322 322 321 321 321 321 321 321 321
309 309 310 310 310 311 312 313 314 315 315 316 317 319 321 322 323 324 324 324 324 324 324 324 323 323 323 323 323 322 322 322 322 322 322 321 321 321 321 321 321 321
309 309 309 309 309 309 309 310 310 311 312 313 314 315 317 318 320 322 323 323 323 323 323 323 323 323 323 323 323 323 322 322 322 321 321 321 321 320 320 320 320 321
309 309 309 309 309 310 310 310 310 310 310 311 311 312 313 315 317 319 320 321 322 322 322 322 322 323 323 323 323 322 322 322 322 321 321 321 320 320 320 320 320 320
309 308 309 309 310 311 312 312 312 313 313 313 312 313 313 314 315 316 318 319 320 320 320 321 322 322 323 323 322 322 322 322 321 321 321 320 320 320 320 320 320 320
307 307 308 308 309 310 311 313 314 315 315 315 315 315 315 314 314 314 314 315 316 317 318 319 320 321 321 321 321 321 321 321 321 320 320 320 320 320 320 320 320 320
306 306 307 307 307 308 309 310 312 313 314 315 316 316 315 314 314 313 313 314 314 315 316 317 318 319 319 319 319 319 319 320 320 320 319 319 319 320 320 320 320 320
304 305 306 306 307 307 307 307 308 310 311 312 313 313 313 313 313 313 314 315 315 315 316 316 316 317 317 317 317 318 318 318 318 318 318 318 318 319 319 319 319 319
303 304 305 306 306 306 306 306 307 307 308 308 309 310 311 311 312 313 313 314 314 314 314 314 314 314 314 314 315 316 317 317 317 316 316 316 316 316 316 316 317 317
301 303 304 305 305 305 305 306 306 306 306 306 306 307 308 309 309 310 310 311 311 311 311 311 311 311 311 311 312 313 314 314 315 315 315 315 315 314 314 314 315 315
299 300 302 303 303 304 304 304 304 304 305 305 305 305 305 305 306 307 307 307 308 308 308 308 308 309 309 309 310 310 310 310 311 311 312 312 312 311 311 311 311 311
298 299 299 300 301 301 301 302 302 302 302 303 303 303 303 303 303 303 303 304 304 304 304 305 305 305 305 305 306 306 306 306 307 307 308 308 308 307 307 307 308 308
297 297 298 298 299 299 299 299 300 300 300 300 301 301 301 301 300 300 300 300 299 299 300 300 300 300 300 301 301 301 301 302 302 303 303 303 302 302 302 303 304 304
Wind_Speed
45 45 45 45 44 45 44 43 42 41 41 41 40 40 42 42 43 41 41 42 42 43 44 44 44 44 44 43 41 40 40 41 41 41 40 39 41 42 40 40 40 38
44 44 44 43 43 44 44 45 45 43 42 41 40 40 40 40 40 40 41 41 41 42 43 43 43 43 43 42 41 40 40 41 42 41 39 39 41 41 41 41 41 39
42 43 44 44 45 45 45 45 45 43 41 40 40 40 40 40 40 40 40 39 40 41 42 42 42 42 42 42 41 40 41 41 43 42 39 39 41 41 41 42 40 39
42 43 44 45 46 46 45 43 43 42 41 40 41 41 41 41 40 39 39 39 40 40 41 41 41 42 42 41 40 39 40 42 43 41 38 38 40 41 41 40 39 39
41 42 44 44 45 45 43 42 43 43 41 41 42 41 41 40 40 38 38 39 40 40 40 41 41 41 41 40 40 40 40 42 42 41 38 38 40 41 41 39 38 38
40 40 41 42 43 43 42 43 44 43 42 42 41 40 40 40 39 38 38 39 39 40 40 40 40 40 40 40 39 40 40 41 41 40 38 39 40 41 39 37 37 37
37 37 38 39 41 41 41 43 43 42 42 42 41 40 39 39 39 39 39 39 39 40 40 40 40 39 39 39 39 39 40 41 41 39 38 39 39 39 38 37 36 35
35 36 36 37 38 39 40 42 42 42 42 40 40 40 39 38 39 39 39 39 39 40 40 40 40 40 39 39 39 39 40 40 40 39 38 38 38 38 38 36 35 34
33 33 34 35 36 37 39 41 42 42 41 39 40 40 39 39 39 39 39 38 38 39 39 39 40 40 40 39 39 39 40 41 40 39 38 38 38 38 38 36 34 34
29 29 30 32 34 36 37 39 40 40 39 38 39 39 38 38 38 38 38 37 38 38 38 39 39 39 39 39 39 40 40 41 40 39 39 39 39 39 37 35 34 34
25 25 27 29 32 34 36 37 37 36 36 36 37 37 37 37 36 36 37 37 38 38 38 39 39 39 39 39 39 40 40 40 39 39 39 39 39 39 37 36 35 34
20 21 23 25 28 30 32 32 33 33 33 34 35 35 36 35 35 36 37 38 38 38 39 39 39 39 39 38 39 39 39 39 39 38 39 38 38 37 37 36 35 35
18 18 19 21 24 26 27 28 28 29 30 32 32 33 34 35 35 36 37 38 38 38 38 39 38 38 38 38 38 38 38 38 38 38 37 37 36 36 36 37 37 36
15 15 17 18 20 22 23 24 25 26 27 28 29 30 33 33 34 35 35 36 37 37 38 38 37 37 37 37 37 36 36 36 37 37 37 36 36 36 36 37 37 37
12 12 13 15 16 18 19 20 21 22 23 24 26 28 30 31 32 32 33 34 35 36 36 36 36 37 37 36 36 36 35 36 36 36 36 36 36 35 36 36 36 37
9 9 10 11 12 13 14 15 16 18 19 21 23 25 26 27 29 30 31 32 33 33 34 34 35 36 36 36 36 35 35 35 35 35 35 35 35 34 34 34 35 36
7 8 8 8 9 10 11 11 12 13 15 17 19 21 23 24 26 27 29 30 30 30 31 32 33 34 34 34 34 34 34 34 34 34 33 34 34 33 33 33 33 35
7 7 7 7 8 9 9 9 10 11 12 13 15 17 19 21 23 25 26 26 27 27 28 29 30 31 31 32 33 33 34 34 33 32 31 32 32 32 32 32 32 33
5 5 6 6 7 8 9 9 9 10 10 11 12 14 16 18 19 21 22 22 23 23 25 26 28 28 28 29 29 30 30 31 32 32 30 30 31 31 31 31 31 32
3 3 3 4 5 6 7 8 9 9 9 9 10 11 12 14 16 17 18 19 19 20 21 22 23 24 24 24 24 25 26 27 29 30 30 30 30 30 30 31 31 31
1 1 1 2 3 4 5 6 8 8 7 7 7 8 9 10 11 12 13 14 14 15 15 16 17 17 18 19 19 20 21 22 24 26 28 28 28 28 27 27 27 28
2 2 2 2 2 2 3 5 5 5 4 5 5 5 6 7 8 9 10 10 10 11 11 11 11 11 11 11 12 13 15 17 19 21 22 23 23 22 21 20 19 19
1 2 3 3 2 2 2 2 2 2 2 3 3 4 4 5 6 6 6 6 6 6 7 7 7 7 7 7 7 8 9 11 13 14 16 17 18 18 17 16 15 15
2 2 3 4 4 4 3 3 3 3 2 2 0 2 4 5 5 5 5 5 5 5 5 6 7 8 8 9 9 9 9 9 10 10 12 13 13 13 13 13 13 14
3 2 3 4 5 5 5 5 5 6 6 5 5 4 3 2 1 2 2 3 3 4 4 5 6 7 8 9 10 10 11 11 11 12 13 14 14 14 14 14 15 16
6 6 6 6 7 7 7 7 7 8 8 8 8 8 8 7 7 7 6 6 5 4 3 3 2 2 3 4 4 5 6 7 8 10 11 13 13 13 15 16 17 18
Wind_Direction
240 239 238 239 239 240 241 242 242 242 242 241 240 239 240 242 243 242 240 239 238 238 239 239 238 239 239 238 237 236 237 238 238 238 237 235 237 238 239 239 239 238
241 240 239 239 239 240 241 242 243 242 242 242 242 242 243 243 243 243 241 240 239 239 240 239 239 239 239 238 237 235 236 237 238 239 237 235 237 238 238 239 239 238
243 241 240 239 240 240 241 242 243 243 243 243 243 244 244 244 243 243 242 240 240 240 241 240 239 239 238 238 236 234 235 237 238 239 237 236 237 237 238 239 239 238
245 243 241 240 241 241 242 242 243 244 243 243 243 243 244 244 243 242 241 241 240 240 241 240 239 239 238 237 235 234 235 237 239 239 237 236 238 238 239 239 239 239
249 245 243 242 242 242 242 242 243 244 243 243 244 243 243 243 242 241 240 239 239 239 239 239 239 239 238 236 234 233 234 237 239 238 236 236 238 239 239 238 238 239
252 249 245 243 242 242 241 241 243 243 243 244 244 244 243 242 242 240 239 238 238 238 238 238 238 238 237 236 234 233 234 236 238 237 235 236 238 240 239 239 238 239
255 252 249 246 244 243 241 243 244 244 244 245 245 244 243 242 242 240 240 238 237 237 237 237 237 236 236 235 233 233 234 236 237 237 235 236 238 240 239 239 239 239
257 254 251 248 246 244 243 243 244 244 245 244 244 245 243 242 241 241 240 239 237 237 236 236 236 236 236 234 232 233 234 236 237 236 236 236 237 239 239 239 239 239
261 257 253 250 247 246 245 245 245 245 244 243 244 245 244 242 242 241 240 239 237 237 236 236 236 236 235 234 233 233 234 235 236 235 235 236 236 238 240 239 238 238
264 260 256 252 250 249 248 248 248 247 246 244 245 245 244 244 243 241 241 239 238 237 236 237 237 236 235 234 233 234 235 236 236 236 236 236 237 239 240 239 238 237
269 265 259 256 254 254 253 253 252 252 250 248 247 246 246 245 244 243 241 239 238 238 237 237 237 237 236 235 234 235 236 237 237 237 237 237 238 239 240 240 239 238
273 268 263 260 258 258 258 257 257 256 255 253 251 250 249 247 246 244 242 241 240 239 239 239 239 238 237 236 236 236 236 237 238 238 239 239 239 240 241 241 241 241
277 274 269 267 265 264 263 263 262 261 259 258 256 253 252 249 247 245 244 243 242 241 240 240 240 240 239 238 238 237 237 237 238 239 240 240 241 241 241 242 242 242
285 282 278 277 275 273 271 269 268 267 264 262 259 257 255 252 250 248 247 246 245 243 243 243 241 240 240 239 239 238 237 238 238 239 240 240 241 241 241 242 242 243
291 287 283 281 279 276 274 273 272 272 269 266 263 261 259 257 255 252 250 248 247 246 245 244 243 242 241 241 240 239 238 238 239 239 240 240 241 241 241 241 242 243
289 286 281 278 275 271 268 268 269 270 270 269 267 265 263 261 258 255 252 249 248 247 246 245 244 245 244 244 244 242 241 240 240 240 240 240 240 240 240 240 241 243
285 281 277 272 268 264 260 258 260 264 268 270 271 269 267 264 261 257 254 251 249 249 248 247 247 248 248 248 248 246 245 242 241 241 240 240 240 239 239 240 241 243
283 281 278 272 267 264 258 253 253 256 262 268 271 272 271 267 264 261 258 256 253 252 251 251 252 253 253 253 252 250 248 246 243 242 241 240 240 240 241 241 242 243
281 281 280 275 271 270 268 264 259 254 254 261 266 270 272 271 269 267 264 261 258 255 254 254 255 255 255 255 254 253 251 249 246 244 242 241 241 241 242 242 242 243
281 281 274 272 273 272 271 270 267 263 258 260 264 267 271 275 276 275 272 268 265 262 260 259 260 260 259 257 257 257 255 253 250 248 245 244 243 243 243 244 245 245
338 337 304 286 281 277 275 270 267 265 261 260 264 268 272 277 279 279 277 276 273 269 266 265 265 264 263 261 259 257 255 254 253 251 248 246 244 244 244 246 247 248
21 38 44 24 344 309 292 281 276 271 258 248 249 256 265 270 272 273 271 269 268 266 263 262 259 257 257 256 255 252 249 248 249 251 250 249 247 245 244 243 244 245
15 58 73 73 64 38 358 330 320 308 272 242 228 221 232 246 254 258 257 252 251 250 245 238 230 226 224 225 229 234 237 240 243 244 246 247 247 246 245 243 241 240
27 75 90 97 100 90 75 63 52 47 49 47 121 190 207 221 230 237 244 248 249 250 248 243 241 243 244 245 247 245 242 240 240 239 240 242 245 246 246 245 244 244
44 67 90 101 99 91 85 82 76 69 64 62 65 73 86 107 140 196 233 260 268 268 268 264 264 268 267 264 266 265 262 257 254 253 253 252 254 256 256 255 256 258
71 70 78 88 90 86 83 82 80 78 74 71 71 72 73 73 72 73 73 65 54 46 41 33 11 337 307 290 285 283 281 275 269 267 265 263 265 266 266 267 267 268